Live-Position
3D-Globus wird geladen...
Über Starlink 5876
Group: 3 satellites
Beschreibung wird geladen...
Nächste Überflüge
Passes for default location (London). Set your location on the main map for personalized predictions.
Höhenverlauf
Loading altitude history...
No altitude history available
Zweizeiliger Elementsatz
1 56321U 23058E 26126.46883044 -.00184826 00000-0 -13178-1 0 9991
2 56321 97.5261 128.1250 0002486 157.7421 202.3914 15.05539353166547
Epoch: 6. Mai 2026 •
Age: 11 hours
Aktueller Status
Höhe 577.6 km
Geschwindigkeit 7.57 km/s
Subsatellitenpunkt -69.72°S,
46.93°W
Startdatum 27. Apr. 2023
Alter 3 years
Typ internet
Startgruppe
Falcon 9 •
Group 3-5 •
45 satellites
Starlink 6038
56317
Starlink 5954 56318
Starlink 6039 56319
Starlink 5988 56320
Starlink 6033 56322
Starlink 6035 56323
Starlink 6034 56324
Starlink 5981 56325
Starlink 5980 56326
Starlink 5997 56327
Starlink 5992 56328
Starlink 5984 56329
Starlink 5991 56331
Starlink 5093 56332
Starlink 5553 56333
Starlink 5548 56334
Starlink 5559 56335
Starlink 5562 56336
Starlink 5561 56337
Starlink 5554 56338
...and 24 more
Technische Details
Klassifizierung Payload
Masse 300.00 kg
Trockenmasse 260.00 kg
Gesamtmasse 300.00 kg
Länge 0.20 m
Durchmesser 2.80 m
Spannweite 9.00 m
Form Box + pan
Hersteller SPXS
Bus-Typ Starlink
Phasenstatus In Orbit
Besitzer/Staat SPXS/US
Most Searched
Loading...